Location: AstroGeek's Observatory
(41.9520°N, 70.9880°W)
Time: 21:05:30
(UTC-05:00)

ISS - All Passes

Search period start: 23 January 2018 00:00
Search period end: 02 February 2018 00:00
Orbit: 402 x 407 km, 51.6° (Epoch: 24 January)

Date Brightness Start Highest point End Pass type
(mag) Time Alt. Az. Time Alt. Az. Time Alt. Az.
23 Jan - 00:13:15 10° NW 00:15:46 20° NNE 00:18:17 10° ENE night (unlit)
23 Jan - 01:49:21 10° NW 01:52:39 81° NE 01:55:55 10° ESE night (unlit)
23 Jan - 03:27:24 10° WSW 03:28:40 12° SW 03:29:57 10° SSW night (unlit)
23 Jan - 18:30:07 10° S 18:32:32 19° SE 18:34:58 10° E visible
23 Jan - 20:05:35 10° WSW 20:08:47 50° NNW 20:11:59 10° NE visible
23 Jan - 21:43:33 10° NW 21:45:49 17° N 21:48:06 10° NNE night (unlit)
23 Jan - 23:21:01 10° NNW 23:23:14 17° N 23:25:28 10° NE night (unlit)
24 Jan - 00:57:08 10° NW 01:00:19 46° NNE 01:03:29 10° ESE night (unlit)
24 Jan - 02:34:00 10° W 02:36:36 22° SW 02:39:13 10° S night (unlit)
24 Jan - 17:40:01 10° SE 17:40:29 10° SE 17:40:56 10° ESE visible
24 Jan - 19:13:11 10° SW 19:16:27 89° SE 19:19:44 10° NE visible
24 Jan - 20:50:43 10° WNW 20:53:17 21° NNW 20:55:52 10° NE night (unlit)
24 Jan - 22:28:38 10° NW 22:30:39 15° N 22:32:41 10° NE night (unlit)
25 Jan - 00:04:58 10° NW 00:07:54 30° NNE 00:10:50 10° E night (unlit)
25 Jan - 01:41:20 10° WNW 01:44:26 41° SW 01:47:33 10° SSE night (unlit)
25 Jan - 18:21:04 10° SW 18:24:12 46° SE 18:27:21 10° ENE visible
25 Jan - 19:57:54 10° W 20:00:47 28° NNW 20:03:40 10° NE visible
25 Jan - 21:36:02 10° NW 21:38:03 15° N 21:40:03 10° NE night (unlit)
25 Jan - 23:12:46 10° NW 23:15:24 22° NNE 23:18:03 10° ENE night (unlit)
26 Jan - 00:48:55 10° WNW 00:52:12 81° SW 00:55:28 10° SE night (unlit)
26 Jan - 17:29:20 10° S 17:32:01 24° SE 17:34:43 10° E visible
26 Jan - 19:05:13 10° WSW 19:08:20 42° NNW 19:11:29 10° NE visible
26 Jan - 20:43:16 10° NW 20:45:27 16° N 20:47:38 10° NNE night (unlit)
26 Jan - 22:20:32 10° NNW 22:22:51 18° NNE 22:25:10 10° ENE night (unlit)
26 Jan - 23:56:38 10° NW 23:59:52 55° NNE 00:03:05 10° ESE night (unlit)
27 Jan - 01:33:46 10° W 01:36:04 18° SW 01:38:21 10° S night (unlit)
27 Jan - 16:38:18 10° SSE 16:39:53 13° SE 16:41:28 10° ESE daylight
27 Jan - 18:12:42 10° WSW 18:15:57 74° NNW 18:19:13 10° NE visible
27 Jan - 19:50:23 10° WNW 19:52:52 19° NNW 19:55:19 10° NE visible
27 Jan - 21:28:10 10° NNW 21:30:14 15° N 21:32:19 10° NE night (unlit)
27 Jan - 23:04:24 10° NW 23:07:26 34° NNE 23:10:27 10° E night (unlit)
28 Jan - 00:40:54 10° WNW 00:43:54 33° SW 00:46:52 10° SSE night (unlit)
28 Jan - 17:20:26 10° SW 17:23:38 58° SE 17:26:51 10° ENE visible
28 Jan - 18:57:31 10° W 19:00:18 25° NNW 19:03:05 10° NE visible
28 Jan - 20:35:37 10° NW 20:37:36 15° N 20:39:35 10° NE night (unlit)
28 Jan - 22:12:11 10° NW 22:14:56 24° NNE 22:17:40 10° ENE night (unlit)
28 Jan - 23:48:23 10° WNW 23:51:38 65° SW 23:54:52 10° SE night (unlit)
29 Jan - 16:28:29 10° SSW 16:31:22 30° SE 16:34:17 10° ENE daylight
29 Jan - 18:04:44 10° W 18:07:47 36° NNW 18:10:51 10° NE visible
29 Jan - 19:42:52 10° NW 19:44:57 16° N 19:47:03 10° NNE visible
29 Jan - 21:19:56 10° NNW 21:22:20 19° NNE 21:24:46 10° ENE night (unlit)
29 Jan - 22:56:01 10° NW 22:59:17 67° NNE 23:02:32 10° ESE night (unlit)
30 Jan - 00:33:32 10° W 00:35:23 14° SW 00:37:14 10° SSW night (unlit)
30 Jan - 15:37:05 10° S 15:39:11 16° SE 15:41:17 10° E daylight
30 Jan - 17:12:07 10° WSW 17:15:21 60° NNW 17:18:34 10° NE daylight
30 Jan - 18:49:57 10° WNW 18:52:18 18° NNW 18:54:40 10° NNE visible
30 Jan - 20:27:34 10° NNW 20:29:43 16° N 20:31:51 10° NE night (unlit)
30 Jan - 22:03:44 10° NW 22:06:51 39° NNE 22:09:56 10° E night (unlit)
30 Jan - 23:40:24 10° WNW 23:43:12 26° SW 23:46:00 10° SSE night (unlit)
31 Jan - 16:19:42 10° SW 16:22:57 74° SE 16:26:12 10° ENE daylight
31 Jan - 17:57:02 10° WNW 17:59:42 23° NNW 18:02:22 10° NE visible
31 Jan - 19:35:03 10° NW 19:37:02 15° N 19:39:02 10° NE visible
31 Jan - 21:11:29 10° NW 21:14:19 26° NNE 21:17:10 10° E night (unlit)
31 Jan - 22:47:45 10° WNW 22:50:56 51° SW 22:54:07 10° SE night (unlit)
01 Feb - 15:27:36 10° SSW 15:30:38 37° SE 15:33:41 10° ENE daylight
01 Feb - 17:04:10 10° W 17:07:08 31° NNW 17:10:06 10° NE daylight
01 Feb - 18:42:19 10° NW 18:44:21 15° N 18:46:23 10° NE visible
01 Feb - 20:19:12 10° NW 20:21:43 20° NNE 20:24:15 10° ENE visible
01 Feb - 21:55:18 10° NW 21:58:34 83° NNE 22:01:51 10° ESE night (unlit)
01 Feb - 23:33:26 10° WSW 23:34:36 11° SW 23:35:45 10° SSW night (unlit)
